When you browse on this site, cookies collect data to enhance your experience and personalize the content and advertising you see.
Visit our Privacy Policy to learn more. By continuing to use the site, you agree to this use of cookies and data.
  • In Lithuania
  • List of Countries
  • For 7 days
  • Water Temperature
  • Satellite Maps
  • Weather Map
  • Weather Widgets
  • user-avatar
    Login

    Hourly Weather Solden

    Today, 24 March, Sunday

    Time Temperature Precipitation Wind Pressure Humidity
    00:00 0°C° 0 mm 1 mps 585 mmHg 66%
    01:00 -1°C° 0 mm 1 mps 585 mmHg 62%
    02:00 -1°C° 0 mm 1 mps 585 mmHg 63%
    03:00 -1°C° 0 mm 1 mps 584 mmHg 63%
    04:00 -2°C° 0 mm 1 mps 584 mmHg 64%
    05:00 -2°C° 0 mm 1 mps 584 mmHg 63%
    06:00 -2°C° 0 mm 1 mps 584 mmHg 62%
    07:00 -1°C° 0 mm 1 mps 584 mmHg 62%
    08:00 +1°C° 0 mm 1 mps 585 mmHg 59%
    09:00 +4°C° 0 mm 1 mps 586 mmHg 56%
    10:00 +6°C° 0 mm 0 mps 587 mmHg 53%
    11:00 +6°C° 0 mm 0 mps 587 mmHg 51%
    12:00 +8°C° 0 mm 1 mps 587 mmHg 49%
    13:00 +9°C° 0 mm 1 mps 587 mmHg 46%
    14:00 +9°C° 0 mm 1 mps 587 mmHg 47%
    15:00 +8°C° 0 mm 1 mps 587 mmHg 47%
    16:00 +7°C° 0 mm 0 mps 586 mmHg 48%
    17:00 +6°C° 0 mm 1 mps 585 mmHg 53%
    18:00 +4°C° 0 mm 1 mps 584 mmHg 58%
    19:00 +2°C° 0 mm 1 mps 583 mmHg 63%
    20:00 +1°C° 0 mm 1 mps 583 mmHg 67%
    21:00 -2°C° 0 mm 2 mps 583 mmHg 72%
    22:00 -2°C° 0 mm 2 mps 582 mmHg 77%
    23:00 -2°C° 0 mm 2 mps 582 mmHg 78%

    Tomorrow, 25 March, Monday

    Time Temperature Precipitation Wind Pressure Humidity
    00:00 -3°C° 0 mm 2 mps 582 mmHg 79%
    01:00 -3°C° 0 mm 2 mps 582 mmHg 81%
    02:00 -4°C° 0 mm 2 mps 581 mmHg 81%
    03:00 -4°C° 0 mm 2 mps 581 mmHg 81%
    04:00 -4°C° 0 mm 2 mps 580 mmHg 81%
    05:00 -4°C° 0 mm 2 mps 580 mmHg 81%
    06:00 -4°C° 0 mm 2 mps 580 mmHg 80%
    07:00 -4°C° 0 mm 2 mps 580 mmHg 79%
    08:00 -2°C° 0 mm 2 mps 581 mmHg 72%
    09:00 +1°C° 0 mm 2 mps 582 mmHg 65%
    10:00 +3°C° 0 mm 2 mps 582 mmHg 58%
    11:00 +4°C° 0 mm 2 mps 582 mmHg 56%
    12:00 +6°C° 0 mm 1 mps 583 mmHg 53%
    13:00 +6°C° 0 mm 1 mps 583 mmHg 51%
    14:00 +5°C° 0 mm 2 mps 582 mmHg 51%
    15:00 +4°C° 0 mm 2 mps 581 mmHg 51%
    16:00 +2°C° 0 mm 3 mps 581 mmHg 52%
    17:00 0°C° 0.1 mm 3 mps 580 mmHg 57%
    18:00 -2°C° 0.1 mm 3 mps 579 mmHg 62%
    19:00 -5°C° 0.1 mm 4 mps 579 mmHg 67%
    20:00 -7°C° 0 mm 4 mps 579 mmHg 66%
    21:00 -8°C° 0 mm 4 mps 579 mmHg 65%
    22:00 -9°C° 0 mm 4 mps 579 mmHg 64%
    23:00 -10°C° 0 mm 4 mps 579 mmHg 64%

    Day after tomorrow, 26 March, Tuesday

    Time Temperature Precipitation Wind Pressure Humidity
    00:00 -11°C° 0 mm 4 mps 580 mmHg 64%
    01:00 -11°C° 0 mm 4 mps 580 mmHg 63%
    02:00 -11°C° 0 mm 4 mps 580 mmHg 62%
    03:00 -10°C° 0 mm 3 mps 581 mmHg 62%
    04:00 -12°C° 0 mm 3 mps 581 mmHg 61%
    05:00 -12°C° 0 mm 3 mps 581 mmHg 62%
    06:00 -12°C° 0 mm 3 mps 582 mmHg 62%
    07:00 -12°C° 0 mm 3 mps 582 mmHg 62%
    08:00 -9°C° 0 mm 3 mps 583 mmHg 56%
    09:00 -8°C° 0 mm 3 mps 584 mmHg 50%
    10:00 -7°C° 0 mm 3 mps 584 mmHg 44%
    11:00 -6°C° 0 mm 3 mps 585 mmHg 41%
    12:00 -4°C° 0 mm 3 mps 585 mmHg 38%
    13:00 -2°C° 0 mm 3 mps 586 mmHg 34%
    14:00 -2°C° 0 mm 3 mps 585 mmHg 36%
    15:00 -2°C° 0 mm 3 mps 585 mmHg 37%
    16:00 -2°C° 0 mm 3 mps 585 mmHg 39%
    17:00 -5°C° 0 mm 3 mps 584 mmHg 47%
    18:00 -6°C° 0 mm 2 mps 584 mmHg 54%
    19:00 -8°C° 0 mm 2 mps 583 mmHg 61%
    20:00 -8°C° 0 mm 2 mps 583 mmHg 64%
    21:00 -9°C° 0 mm 2 mps 584 mmHg 66%
    22:00 -10°C° 0 mm 2 mps 584 mmHg 69%
    23:00 -10°C° 0 mm 2 mps 584 mmHg 67%

    27 March, Wednesday

    Time Temperature Precipitation Wind Pressure Humidity
    00:00 -10°C° 0 mm 2 mps 584 mmHg 65%
    01:00 -10°C° 0 mm 2 mps 584 mmHg 63%
    02:00 -10°C° 0 mm 2 mps 583 mmHg 61%
    03:00 -10°C° 0 mm 2 mps 583 mmHg 58%
    04:00 -10°C° 0 mm 2 mps 583 mmHg 56%
    05:00 -9°C° 0 mm 2 mps 584 mmHg 54%
    06:00 -8°C° 0 mm 2 mps 584 mmHg 53%
    07:00 -8°C° 0 mm 2 mps 584 mmHg 52%
    08:00 -6°C° 0 mm 2 mps 585 mmHg 48%
    09:00 -3°C° 0 mm 1 mps 586 mmHg 44%
    10:00 -1°C° 0 mm 1 mps 587 mmHg 41%
    11:00 0°C° 0 mm 1 mps 587 mmHg 41%
    12:00 +1°C° 0 mm 1 mps 588 mmHg 41%
    13:00 +2°C° 0 mm 1 mps 588 mmHg 42%
    14:00 +1°C° 0 mm 2 mps 588 mmHg 44%
    15:00 +1°C° 0 mm 2 mps 588 mmHg 46%
    16:00 +1°C° 0 mm 2 mps 587 mmHg 47%
    17:00 -2°C° 0 mm 2 mps 587 mmHg 54%
    18:00 -4°C° 0 mm 2 mps 586 mmHg 60%
    19:00 -5°C° 0 mm 2 mps 586 mmHg 66%
    20:00 -6°C° 0 mm 2 mps 586 mmHg 69%
    21:00 -7°C° 0 mm 2 mps 586 mmHg 71%
    22:00 -8°C° 0 mm 2 mps 586 mmHg 74%
    23:00 -8°C° 0 mm 2 mps 586 mmHg 74%

    28 March, Thursday

    Time Temperature Precipitation Wind Pressure Humidity
    00:00 -8°C° 0 mm 2 mps 586 mmHg 74%
    01:00 -9°C° 0 mm 2 mps 586 mmHg 74%
    02:00 -9°C° 0 mm 2 mps 586 mmHg 72%
    03:00 -9°C° 0 mm 2 mps 585 mmHg 71%
    04:00 -9°C° 0 mm 2 mps 585 mmHg 70%
    05:00 -9°C° 0 mm 2 mps 585 mmHg 67%
    06:00 -8°C° 0 mm 2 mps 586 mmHg 65%
    07:00 -8°C° 0 mm 2 mps 586 mmHg 63%
    08:00 -6°C° 0 mm 2 mps 587 mmHg 57%
    09:00 -3°C° 0 mm 2 mps 588 mmHg 50%
    10:00 -1°C° 0 mm 2 mps 589 mmHg 44%
    11:00 +1°C° 0 mm 2 mps 589 mmHg 43%
    12:00 +2°C° 0 mm 2 mps 589 mmHg 42%
    13:00 +3°C° 0 mm 2 mps 589 mmHg 42%
    14:00 +2°C° 0 mm 2 mps 589 mmHg 43%
    15:00 +2°C° 0 mm 2 mps 589 mmHg 44%
    16:00 +2°C° 0 mm 2 mps 588 mmHg 46%
    17:00 +1°C° 0 mm 1 mps 588 mmHg 53%
    18:00 -1°C° 0 mm 1 mps 587 mmHg 61%
    19:00 -3°C° 0 mm 1 mps 586 mmHg 68%
    20:00 -4°C° 0 mm 1 mps 586 mmHg 71%
    21:00 -4°C° 0 mm 1 mps 586 mmHg 74%
    22:00 -6°C° 0 mm 1 mps 586 mmHg 77%
    23:00 -6°C° 0 mm 1 mps 586 mmHg 77%

    29 March, Friday

    Time Temperature Precipitation Wind Pressure Humidity
    00:00 -6°C° 0 mm 1 mps 586 mmHg 77%
    01:00 -7°C° 0 mm 1 mps 586 mmHg 77%
    02:00 -7°C° 0 mm 1 mps 585 mmHg 77%
    03:00 -7°C° 0 mm 1 mps 585 mmHg 76%
    04:00 -7°C° 0 mm 1 mps 585 mmHg 76%
    05:00 -7°C° 0 mm 1 mps 585 mmHg 73%
    06:00 -6°C° 0 mm 1 mps 586 mmHg 71%
    07:00 -6°C° 0 mm 1 mps 586 mmHg 68%
    08:00 -3°C° 0 mm 1 mps 587 mmHg 60%
    09:00 0°C° 0 mm 1 mps 588 mmHg 51%
    10:00 +2°C° 0 mm 1 mps 589 mmHg 42%
    11:00 +3°C° 0 mm 1 mps 589 mmHg 39%
    12:00 +4°C° 0 mm 1 mps 589 mmHg 36%
    13:00 +5°C° 0 mm 1 mps 589 mmHg 33%
    14:00 +5°C° 0 mm 1 mps 589 mmHg 34%
    15:00 +4°C° 0 mm 1 mps 588 mmHg 35%
    16:00 +4°C° 0 mm 1 mps 588 mmHg 36%
    17:00 +2°C° 0 mm 1 mps 587 mmHg 44%
    18:00 0°C° 0 mm 1 mps 586 mmHg 53%
    19:00 -2°C° 0 mm 1 mps 585 mmHg 62%
    20:00 -3°C° 0 mm 1 mps 585 mmHg 66%
    21:00 -4°C° 0 mm 1 mps 585 mmHg 70%
    22:00 -5°C° 0 mm 0 mps 585 mmHg 75%
    23:00 -5°C° 0 mm 0 mps 585 mmHg 76%
    Show more